VTCCVTSP

Guest
Details From VTCC - Chiang Mai Intl
To VTSP - Phuket Intl
Flight Number -
Tags Generated
Created
Modified
Stats Distance 642 nm / 1,189 km
Max Altitude 0 ft / 0 m
Waypoints 3
Social Downloads 2
Likes 0
Share VATSIM

Download

Looking for another format? Having issues loading an existing format? Contact us
Advertisement - Login to hide

Notes

Generated

Route

VTCC PUT VTSP

ID Type Via Altitude Latitude Longitude Leg Dist Tot Dist Heading (true) Name
O VTCC APT - 0 ft / 0 m 18.78087˚ 98.96270˚ - 0 nm - -
PUT VOR - 0 ft / 0 m 8.11523˚ 98.30630˚ 641 nm 641 nm 184° / 183° PHUKET VOR-DME
O VTSP APT - 0 ft / 0 m 8.11189˚ 98.30327˚ 0 nm 641 nm 222° / 222° -

Altitude Profile

Advertisement - Login to hide

Weather


0- 5 10 15 20 25 30 35+ Temperature / ° C

Clouds and Precipitation
Forecast for 2018-05-22 00:00 UTC. Updated 3 hours ago

Ground ~20,000 ft ~40,000 ft Winds

VTCC

Details ICAO VTCC (CNX)
Name Chiang Mai Intl
Region Thailand
Timezone Asia/Bangkok (UTC+7.0)
Stats Elevation 1,036 ft / 316 m (AMSL)
Location 18.766845° 98.962643°
Runways 1
Magnetic Variation 0.732° W

METAR

VTCC 220230Z 01011KT 340V050 9999 FEW010 BKN035 25/22 Q1015 NOSIG

Decode

TAF

TAF VTCC 212300Z 2200/2306 22005KT 9999 SCT035 TEMPO 2208/2215 VRB15G25KT 5000 TSRA FEW025CB BKN030

Decode

Departure Runways

ID Width Length Bearing (true) Bearing (mag) Surface Threshold Offset Overrun Length
18 148 ft / 45 m 10,237 ft / 3,120 m 180.22° 180.95° Asphalt 0 ft / 0 m 974 ft / 297 m
36 148 ft / 45 m 10,237 ft / 3,120 m 0.22° 0.95° Asphalt 0 ft / 0 m 341 ft / 104 m

VTSP

Details ICAO VTSP (HKT)
Name Phuket Intl
Region Thailand
Timezone Asia/Bangkok (UTC+7.0)
Stats Elevation 82 ft / 25 m (AMSL)
Location 8.113199° 98.316871°
Runways 1
Magnetic Variation 0.423° W

METAR

VTSP 220230Z 06003KT 360V130 9999 FEW020 BKN100 30/23 Q1011 NOSIG

Decode

TAF

TAF VTSP 212300Z 2200/2306 VRB02KT 9999 FEW020 SCT0100 BECMG 2202/2204 28008KT TEMPO 2206/2212 VRB10G20KT 5000 TSRA FEW018CB SCT020 BKN100 BECMG 2212/2214 VRB02KT 8000 BECMG 2302/2304 28008KT

Decode

Destination Runways

ID Width Length Bearing (true) Bearing (mag) Surface Threshold Offset Overrun Length
09 148 ft / 45 m 9,870 ft / 3,008 m 84.45° 84.87° Asphalt 0 ft / 0 m 197 ft / 60 m
27 148 ft / 45 m 9,870 ft / 3,008 m 264.46° 264.88° Asphalt 0 ft / 0 m 197 ft / 60 m

Approach Navaids

Runway Type Ident Frequency Range Bearing (true) Bearing (mag) Slope Elevation
27 Localiser IPKT 109.90 MHz 18 nm / 33 km 263.45° 263.88° - 19 ft / 6 m (AMSL)
27 Glidescope IPKT 109.90 MHz 10 nm / 19 km 263.45° 263.88° 3.20° 82 ft / 25 m (AMSL)
27 DME IPKT 109.90 MHz 18 nm / 33 km - - - 82 ft / 25 m (AMSL)

Popular Alternatives